JBU724 KLAX-KJFK

Flight info

Callsign JBU724
Flight time N/A
Altitude 35000
Route OSHNN1 BEALE J146 DVC KD51W/N0452F370 OATHE KD54A MCI RBS BVT JOEBU DORET Q29 JHW Q476 WLKES PUCKY1
Aircraft A321/M-SDE3FGHIRWY/LB1

Departure

Time 2026-05-05 21:59
Airport Los Angeles International Airport (KLAX)

Arrival

Time N/A
Airport John F. Kennedy International Airport (KJFK)
Time Latitude Longitude Altitude Speed Heading
2026-05-05 21:25 33.94687 -118.40191 122 ft 0 kts 82°
2026-05-05 21:51 33.94686 -118.40206 121 ft 4 kts 83°
2026-05-05 21:51 33.94681 -118.40237 121 ft 4 kts 65°
2026-05-05 21:52 33.94671 -118.40250 122 ft 0 kts 353°
2026-05-05 21:55 33.94687 -118.40252 124 ft 6 kts 354°
2026-05-05 21:55 33.94744 -118.40260 122 ft 8 kts 353°
2026-05-05 21:55 33.94756 -118.40261 123 ft 1 kts 353°
2026-05-05 21:55 33.94766 -118.40263 124 ft 2 kts 353°
2026-05-05 21:56 33.94786 -118.40266 122 ft 4 kts 352°
2026-05-05 21:56 33.94821 -118.40277 124 ft 6 kts 342°
2026-05-05 21:56 33.94861 -118.40292 124 ft 7 kts 349°
2026-05-05 21:56 33.94893 -118.40266 120 ft 7 kts 63°
2026-05-05 21:57 33.94906 -118.40202 123 ft 9 kts 77°
2026-05-05 21:57 33.94916 -118.40124 124 ft 10 kts 82°
2026-05-05 21:57 33.94924 -118.40038 125 ft 11 kts 84°
2026-05-05 21:57 33.94936 -118.39946 123 ft 11 kts 70°
2026-05-05 21:58 33.94987 -118.39914 123 ft 9 kts 359°
2026-05-05 21:58 33.95040 -118.39941 124 ft 8 kts 301°
2026-05-05 21:58 33.95033 -118.40046 123 ft 33 kts 263°
2026-05-05 21:58 33.94974 -118.40606 122 ft 100 kts 263°
2026-05-05 21:59 33.94868 -118.41643 129 ft 150 kts 263°
2026-05-05 21:59 33.94740 -118.42920 706 ft 155 kts 263°
2026-05-05 21:59 33.94609 -118.44218 1516 ft 161 kts 263°
2026-05-05 21:59 33.94466 -118.45643 2035 ft 182 kts 262°
2026-05-05 22:00 33.94327 -118.47245 2390 ft 203 kts 265°
2026-05-05 22:00 33.94248 -118.49039 2539 ft 227 kts 267°
2026-05-05 22:00 33.94184 -118.51031 2907 ft 246 kts 266°
2026-05-05 22:00 33.94065 -118.53112 3582 ft 252 kts 265°
2026-05-05 22:01 33.93908 -118.55246 4307 ft 257 kts 264°
2026-05-05 22:01 33.93735 -118.57416 4966 ft 264 kts 265°
2026-05-05 22:01 33.93557 -118.59601 5638 ft 268 kts 265°
2026-05-05 22:01 33.93057 -118.61778 6306 ft 275 kts 240°
2026-05-05 22:02 33.91734 -118.63450 6957 ft 282 kts 210°
2026-05-05 22:02 33.89858 -118.64146 7587 ft 289 kts 181°
2026-05-05 22:02 33.87833 -118.64067 8204 ft 293 kts 176°
2026-05-05 22:02 33.85784 -118.63896 8897 ft 296 kts 171°
2026-05-05 22:03 33.83779 -118.63270 9502 ft 300 kts 155°
2026-05-05 22:03 33.81951 -118.62035 10093 ft 302 kts 143°
2026-05-05 22:03 33.80173 -118.60539 10354 ft 322 kts 143°
2026-05-05 22:03 33.78261 -118.58965 10489 ft 344 kts 143°
2026-05-05 22:04 33.76218 -118.57308 10612 ft 364 kts 144°
2026-05-05 22:04 33.74066 -118.55574 10844 ft 379 kts 145°
2026-05-05 22:04 33.71946 -118.53658 11351 ft 383 kts 136°
2026-05-05 22:04 33.70140 -118.51286 11886 ft 387 kts 125°
2026-05-05 22:05 33.68757 -118.48561 12468 ft 389 kts 114°
2026-05-05 22:05 33.67766 -118.45526 13006 ft 394 kts 109°
2026-05-05 22:05 33.66850 -118.42418 13590 ft 397 kts 108°
2026-05-05 22:05 33.65921 -118.39266 14080 ft 403 kts 109°
2026-05-05 22:06 33.65028 -118.36067 14626 ft 405 kts 104°
2026-05-05 22:06 33.64527 -118.32743 15210 ft 406 kts 94°
2026-05-05 22:06 33.64460 -118.29361 15791 ft 407 kts 88°
2026-05-05 22:06 33.64475 -118.25951 16310 ft 410 kts 88°
2026-05-05 22:07 33.64821 -118.22559 16893 ft 410 kts 75°
2026-05-05 22:07 33.65727 -118.19323 17438 ft 410 kts 63°
2026-05-05 22:07 33.67181 -118.16384 17994 ft 409 kts 51°
2026-05-05 22:07 33.69103 -118.13877 18494 ft 408 kts 39°
2026-05-05 22:08 33.71353 -118.11794 18971 ft 409 kts 34°
2026-05-05 22:08 33.73651 -118.09746 19450 ft 411 kts 34°
2026-05-05 22:08 33.75950 -118.07695 19870 ft 414 kts 35°
2026-05-05 22:08 33.78269 -118.05619 20349 ft 415 kts 35°
2026-05-05 22:09 33.80588 -118.03537 20837 ft 417 kts 34°
2026-05-05 22:09 33.82886 -118.01472 21266 ft 419 kts 34°
2026-05-05 22:09 33.85223 -117.99364 21720 ft 421 kts 35°
2026-05-05 22:09 33.87569 -117.97245 22173 ft 423 kts 35°
2026-05-05 22:10 33.89924 -117.95118 22637 ft 424 kts 36°
2026-05-05 22:10 33.92288 -117.92981 23058 ft 426 kts 36°
2026-05-05 22:10 33.94658 -117.90822 23452 ft 429 kts 36°
2026-05-05 22:10 33.97039 -117.88645 23807 ft 431 kts 36°
2026-05-05 22:11 33.99432 -117.86449 24177 ft 433 kts 36°
2026-05-05 22:11 34.01835 -117.84241 24525 ft 435 kts 36°
2026-05-05 22:11 34.04250 -117.82022 24865 ft 438 kts 36°
2026-05-05 22:11 34.06682 -117.79790 25197 ft 440 kts 35°
2026-05-05 22:12 34.09029 -117.77403 25526 ft 443 kts 43°
2026-05-05 22:12 34.11082 -117.74608 25833 ft 447 kts 49°
2026-05-05 22:12 34.13046 -117.71687 26140 ft 449 kts 49°
2026-05-05 22:12 34.15020 -117.68750 26447 ft 451 kts 49°
2026-05-05 22:13 34.17003 -117.65799 26748 ft 454 kts 49°
2026-05-05 22:13 34.18997 -117.62835 27040 ft 455 kts 50°
2026-05-05 22:13 34.20995 -117.59866 27406 ft 455 kts 49°
2026-05-05 22:13 34.23000 -117.56885 27731 ft 456 kts 49°
2026-05-05 22:14 34.24998 -117.53912 28152 ft 455 kts 49°
2026-05-05 22:14 34.26320 -117.51941 28436 ft 454 kts 50°
2026-05-05 22:15 34.32847 -117.42193 29791 ft 451 kts 49°
2026-05-05 22:15 34.34817 -117.39254 30169 ft 450 kts 50°
2026-05-05 22:15 34.36793 -117.36299 30459 ft 450 kts 49°
2026-05-05 22:15 34.38740 -117.33384 30688 ft 452 kts 49°
2026-05-05 22:16 34.40717 -117.30418 30893 ft 454 kts 49°
2026-05-05 22:16 34.42695 -117.27446 31131 ft 455 kts 48°
2026-05-05 22:16 34.44688 -117.24449 31363 ft 456 kts 50°
2026-05-05 22:16 34.46683 -117.21448 31626 ft 458 kts 50°
2026-05-05 22:17 34.48685 -117.18437 31800 ft 459 kts 48°
2026-05-05 22:17 34.50694 -117.15415 32012 ft 462 kts 50°
2026-05-05 22:17 34.52715 -117.12372 32163 ft 465 kts 49°
2026-05-05 22:17 34.54746 -117.09313 32343 ft 466 kts 49°
2026-05-05 22:18 34.56793 -117.06276 32695 ft 463 kts 49°
2026-05-05 22:18 34.58854 -117.03270 33012 ft 462 kts 47°
2026-05-05 22:18 34.60922 -117.00291 33225 ft 463 kts 47°
2026-05-05 22:18 34.63003 -116.97300 33420 ft 464 kts 47°
2026-05-05 22:19 34.65085 -116.94293 33627 ft 466 kts 48°
2026-05-05 22:19 34.67165 -116.91269 33838 ft 467 kts 47°
2026-05-05 22:19 34.69223 -116.88265 34025 ft 468 kts 49°
2026-05-05 22:19 34.71309 -116.85211 34195 ft 469 kts 48°
2026-05-05 22:20 34.73395 -116.82146 34333 ft 472 kts 50°
2026-05-05 22:20 34.75486 -116.79069 34494 ft 473 kts 49°
2026-05-05 22:20 34.77581 -116.75986 34690 ft 473 kts 49°
2026-05-05 22:20 34.79682 -116.72899 34846 ft 474 kts 49°
2026-05-05 22:21 34.81784 -116.69811 34930 ft 476 kts 50°
2026-05-05 22:21 34.86015 -116.63601 34935 ft 476 kts 47°
2026-05-05 22:22 34.90420 -116.57573 34935 ft 474 kts 45°
2026-05-05 22:22 34.94898 -116.51754 34913 ft 469 kts 46°
2026-05-05 22:23 34.99328 -116.45929 34896 ft 468 kts 46°
2026-05-05 22:23 35.03704 -116.40040 34894 ft 469 kts 47°
2026-05-05 22:24 35.08086 -116.34119 34897 ft 470 kts 47°
2026-05-05 22:24 35.12472 -116.28204 34901 ft 470 kts 46°
2026-05-05 22:25 35.16840 -116.22331 34901 ft 470 kts 47°
2026-05-05 22:25 35.21245 -116.16391 34899 ft 471 kts 47°
2026-05-05 22:26 35.25640 -116.10442 34926 ft 470 kts 47°
2026-05-05 22:26 35.30014 -116.04507 34930 ft 468 kts 47°
2026-05-05 22:27 35.34374 -115.98582 34940 ft 467 kts 47°
2026-05-05 22:27 35.38720 -115.92675 34937 ft 466 kts 47°
2026-05-05 22:28 35.43055 -115.86758 34942 ft 466 kts 47°
2026-05-05 22:28 35.47393 -115.80839 34941 ft 467 kts 47°
2026-05-05 22:29 35.51740 -115.74913 34946 ft 466 kts 47°
2026-05-05 22:29 35.56065 -115.68984 34946 ft 467 kts 47°
2026-05-05 22:30 35.60395 -115.63033 34948 ft 467 kts 47°
2026-05-05 22:30 35.64729 -115.57072 34931 ft 468 kts 48°
2026-05-05 22:31 35.69045 -115.51129 34927 ft 469 kts 47°
2026-05-05 22:31 35.73403 -115.45128 34932 ft 470 kts 48°
2026-05-05 22:32 35.77763 -115.39112 34931 ft 471 kts 47°
2026-05-05 22:32 35.82122 -115.33079 34937 ft 471 kts 47°
2026-05-05 22:33 35.86470 -115.27038 34936 ft 471 kts 48°
2026-05-05 22:33 35.90817 -115.20999 34955 ft 470 kts 48°
2026-05-05 22:34 35.95117 -115.15009 34959 ft 467 kts 48°
2026-05-05 22:34 35.99415 -115.09017 34958 ft 465 kts 48°
2026-05-05 22:35 36.03698 -115.03043 34951 ft 464 kts 48°
2026-05-05 22:35 36.07246 -114.98078 34905 ft 463 kts 48°
2026-05-05 22:36 36.11498 -114.92098 34858 ft 462 kts 48°
2026-05-05 22:36 36.15733 -114.86126 34859 ft 461 kts 49°
2026-05-05 22:37 36.19193 -114.79479 34846 ft 461 kts 66°
2026-05-05 22:37 36.21491 -114.72063 34835 ft 461 kts 69°
2026-05-05 22:38 36.23752 -114.64643 34817 ft 461 kts 69°
2026-05-05 22:38 36.26014 -114.57211 34808 ft 461 kts 69°
2026-05-05 22:39 36.28272 -114.49776 34821 ft 460 kts 69°
2026-05-05 22:39 36.30522 -114.42370 34832 ft 458 kts 69°
2026-05-05 22:40 36.32748 -114.35001 34828 ft 455 kts 69°
2026-05-05 22:40 36.34962 -114.27659 34822 ft 454 kts 69°
2026-05-05 22:41 36.37155 -114.20376 34833 ft 453 kts 69°
2026-05-05 22:41 36.39358 -114.13040 34835 ft 453 kts 69°
2026-05-05 22:42 36.41548 -114.05720 34824 ft 453 kts 69°
2026-05-05 22:42 36.43735 -113.98389 34836 ft 453 kts 69°
2026-05-05 22:43 36.45924 -113.91059 34845 ft 452 kts 69°
2026-05-05 22:43 36.48103 -113.83729 34858 ft 452 kts 69°
2026-05-05 22:44 36.50268 -113.76399 34840 ft 452 kts 69°
2026-05-05 22:44 36.52427 -113.69059 34819 ft 453 kts 70°
2026-05-05 22:45 36.54604 -113.61679 34816 ft 455 kts 69°
2026-05-05 22:45 36.56785 -113.54275 34819 ft 456 kts 70°
2026-05-05 22:46 36.58960 -113.46849 34824 ft 457 kts 70°
2026-05-05 22:46 36.61133 -113.39397 34823 ft 458 kts 70°
2026-05-05 22:47 36.63308 -113.31928 34816 ft 460 kts 70°
2026-05-05 22:47 36.65480 -113.24443 34823 ft 460 kts 70°
2026-05-05 22:48 36.67654 -113.16924 34844 ft 461 kts 70°
2026-05-05 22:48 36.69813 -113.09453 34858 ft 462 kts 70°
2026-05-05 22:49 36.71991 -113.01896 34851 ft 465 kts 70°
2026-05-05 22:49 36.74176 -112.94304 34857 ft 467 kts 70°
2026-05-05 22:50 36.76358 -112.86671 34865 ft 468 kts 70°
2026-05-05 22:50 36.78543 -112.79008 34862 ft 469 kts 70°
2026-05-05 22:51 36.80729 -112.71336 34835 ft 470 kts 70°
2026-05-05 22:51 36.82917 -112.63643 34814 ft 471 kts 70°
2026-05-05 22:52 36.85105 -112.55936 34800 ft 471 kts 71°
2026-05-05 22:52 36.87280 -112.48219 34802 ft 471 kts 71°
2026-05-05 22:53 36.89447 -112.40478 34762 ft 473 kts 71°
2026-05-05 22:53 36.91619 -112.32689 34760 ft 476 kts 71°
2026-05-05 22:54 36.93813 -112.24854 34771 ft 478 kts 71°
2026-05-05 22:54 36.96015 -112.17003 34765 ft 479 kts 71°
2026-05-05 22:55 36.98208 -112.09137 34767 ft 479 kts 71°
2026-05-05 22:55 37.00394 -112.01262 34760 ft 479 kts 71°
2026-05-05 22:56 37.02571 -111.93376 34761 ft 479 kts 71°
2026-05-05 22:56 37.04737 -111.85540 34754 ft 480 kts 71°
2026-05-05 22:57 37.06907 -111.77684 34700 ft 474 kts 71°
2026-05-05 22:57 37.09062 -111.69858 34714 ft 476 kts 71°
2026-05-05 22:58 37.11209 -111.61996 34708 ft 477 kts 71°
2026-05-05 22:58 37.13349 -111.54136 34792 ft 476 kts 71°
2026-05-05 22:59 37.15482 -111.46288 34779 ft 476 kts 71°
2026-05-05 22:59 37.17612 -111.38430 34767 ft 476 kts 71°
2026-05-05 23:00 37.20783 -111.26672 34738 ft 477 kts 71°
2026-05-05 23:00 37.22902 -111.18786 34715 ft 477 kts 71°
2026-05-05 23:01 37.25019 -111.10888 34705 ft 478 kts 71°
2026-05-05 23:01 37.27142 -111.02960 34710 ft 478 kts 71°
2026-05-05 23:02 37.29263 -110.95027 34709 ft 479 kts 71°
2026-05-05 23:02 37.31354 -110.87138 34710 ft 479 kts 71°
2026-05-05 23:03 37.33458 -110.79188 34707 ft 480 kts 72°
2026-05-05 23:03 37.35559 -110.71223 34701 ft 480 kts 72°
2026-05-05 23:04 37.37658 -110.63243 34702 ft 481 kts 72°
2026-05-05 23:04 37.39765 -110.55248 34709 ft 481 kts 72°
2026-05-05 23:05 37.41866 -110.47244 34711 ft 481 kts 72°
2026-05-05 23:05 37.43956 -110.39228 34698 ft 483 kts 72°
2026-05-05 23:06 37.46043 -110.31177 34705 ft 484 kts 72°
2026-05-05 23:06 37.48111 -110.23159 34707 ft 484 kts 72°
2026-05-05 23:07 37.50192 -110.15087 34724 ft 485 kts 72°
2026-05-05 23:07 37.52276 -110.06996 34709 ft 487 kts 72°
2026-05-05 23:08 37.54361 -109.98871 34714 ft 488 kts 72°
2026-05-05 23:08 37.56446 -109.90723 34716 ft 489 kts 72°
2026-05-05 23:09 37.58526 -109.82557 34723 ft 490 kts 72°
2026-05-05 23:09 37.60608 -109.74362 34703 ft 491 kts 73°
2026-05-05 23:10 37.62692 -109.66136 34822 ft 493 kts 73°
2026-05-05 23:10 37.64776 -109.57872 34857 ft 495 kts 73°
2026-05-05 23:11 37.66849 -109.49632 34868 ft 496 kts 73°
2026-05-05 23:11 37.68935 -109.41330 34842 ft 497 kts 73°
2026-05-05 23:12 37.71018 -109.32991 34807 ft 499 kts 73°
2026-05-05 23:12 37.73097 -109.24616 34775 ft 500 kts 73°
2026-05-05 23:13 37.75174 -109.16240 34743 ft 500 kts 73°
2026-05-05 23:13 37.77259 -109.07830 34706 ft 502 kts 73°
2026-05-05 23:14 37.79344 -108.99407 34739 ft 502 kts 73°
2026-05-05 23:14 37.81242 -108.90991 34744 ft 499 kts 79°
2026-05-05 23:15 37.82636 -108.82340 34743 ft 498 kts 80°
2026-05-05 23:15 37.83995 -108.73806 34729 ft 498 kts 80°
2026-05-05 23:16 37.85376 -108.65200 34723 ft 500 kts 80°
2026-05-05 23:16 37.86759 -108.56572 34736 ft 501 kts 80°
2026-05-05 23:17 37.88128 -108.47923 34742 ft 501 kts 80°
2026-05-05 23:17 37.89494 -108.39257 34738 ft 503 kts 80°
2026-05-05 23:18 37.90870 -108.30540 34766 ft 505 kts 80°
2026-05-05 23:18 37.92239 -108.21792 34831 ft 507 kts 81°
2026-05-05 23:19 37.93593 -108.13077 34903 ft 508 kts 81°
2026-05-05 23:19 37.94955 -108.04274 34973 ft 509 kts 81°
2026-05-05 23:20 37.96311 -107.95464 34991 ft 509 kts 81°
2026-05-05 23:20 37.96989 -107.91059 34776 ft 509 kts 81°
2026-05-05 23:20 37.97667 -107.86653 34777 ft 509 kts 81°
2026-05-05 23:21 37.99011 -107.77847 34780 ft 509 kts 81°
2026-05-05 23:21 38.00349 -107.69017 34772 ft 510 kts 81°
2026-05-05 23:22 38.01673 -107.60232 34766 ft 512 kts 81°
2026-05-05 23:22 38.02999 -107.51359 34768 ft 512 kts 81°
2026-05-05 23:23 38.04100 -107.43972 34765 ft 513 kts 81°
2026-05-05 23:23 38.05431 -107.35071 34750 ft 514 kts 81°
2026-05-05 23:24 38.06756 -107.26137 34744 ft 516 kts 81°
2026-05-05 23:24 38.08062 -107.17175 34732 ft 517 kts 81°
2026-05-05 23:25 38.09367 -107.08189 34740 ft 517 kts 81°
2026-05-05 23:25 38.10677 -106.99193 34716 ft 520 kts 82°
2026-05-05 23:26 38.11989 -106.90128 34860 ft 524 kts 82°
2026-05-05 23:26 38.12646 -106.85560 35091 ft 525 kts 82°
2026-05-05 23:26 38.13290 -106.81068 35308 ft 525 kts 82°
2026-05-05 23:27 38.13943 -106.76503 35533 ft 525 kts 82°
2026-05-05 23:27 38.14593 -106.71936 35775 ft 525 kts 82°
2026-05-05 23:27 38.15244 -106.67355 35955 ft 527 kts 82°
2026-05-05 23:27 38.15898 -106.62768 36088 ft 529 kts 82°
2026-05-05 23:28 38.16557 -106.58160 36292 ft 529 kts 82°
2026-05-05 23:28 38.17209 -106.53561 36497 ft 529 kts 82°
2026-05-05 23:28 38.17855 -106.48959 36668 ft 529 kts 82°
2026-05-05 23:28 38.18495 -106.44348 36681 ft 530 kts 82°
2026-05-05 23:29 38.19774 -106.35129 36667 ft 529 kts 82°
2026-05-05 23:29 38.21055 -106.25899 36657 ft 532 kts 82°
2026-05-05 23:30 38.22345 -106.16604 36676 ft 533 kts 82°
2026-05-05 23:30 38.23622 -106.07322 36690 ft 532 kts 82°
2026-05-05 23:31 38.24883 -105.98019 36678 ft 535 kts 83°
2026-05-05 23:31 38.26150 -105.88659 36678 ft 539 kts 83°
2026-05-05 23:32 38.27417 -105.79220 36685 ft 543 kts 83°
2026-05-05 23:32 38.28687 -105.69725 36744 ft 544 kts 83°
2026-05-05 23:33 38.29941 -105.60284 36778 ft 545 kts 83°
2026-05-05 23:33 38.31203 -105.50739 36778 ft 548 kts 83°
2026-05-05 23:34 38.32460 -105.41159 36823 ft 549 kts 83°
2026-05-05 23:34 38.33706 -105.31557 36842 ft 550 kts 83°
2026-05-05 23:35 38.34958 -105.21920 36823 ft 551 kts 84°
2026-05-05 23:35 38.36207 -105.12283 36845 ft 553 kts 84°
2026-05-05 23:36 38.37440 -105.02601 36881 ft 554 kts 84°
2026-05-05 23:36 38.38660 -104.92905 36967 ft 554 kts 84°
2026-05-05 23:37 38.39879 -104.83259 36956 ft 556 kts 84°
2026-05-05 23:37 38.41099 -104.73511 36959 ft 557 kts 84°
2026-05-05 23:38 38.42313 -104.63757 36962 ft 557 kts 84°
2026-05-05 23:38 38.43512 -104.53986 36971 ft 558 kts 84°
2026-05-05 23:39 38.44704 -104.44206 36974 ft 558 kts 84°
2026-05-05 23:39 38.45894 -104.34423 36970 ft 558 kts 84°
2026-05-05 23:40 38.47082 -104.24640 36968 ft 558 kts 84°
2026-05-05 23:40 38.48253 -104.14845 36952 ft 559 kts 85°
2026-05-05 23:41 38.49417 -104.05017 36958 ft 560 kts 85°
2026-05-05 23:41 38.50641 -103.95196 36962 ft 561 kts 82°
2026-05-05 23:42 38.52261 -103.85498 36950 ft 563 kts 79°
2026-05-05 23:42 38.54058 -103.75762 36994 ft 563 kts 79°
2026-05-05 23:43 38.55750 -103.66025 36984 ft 560 kts 80°
2026-05-05 23:43 38.57320 -103.56289 36981 ft 559 kts 81°
2026-05-05 23:44 38.58877 -103.46567 36962 ft 558 kts 81°
2026-05-05 23:44 38.60463 -103.36845 36958 ft 559 kts 81°
2026-05-05 23:45 38.62059 -103.27104 36959 ft 560 kts 81°
2026-05-05 23:45 38.63633 -103.17345 36959 ft 560 kts 81°
2026-05-05 23:46 38.65198 -103.07570 36953 ft 562 kts 81°
2026-05-05 23:46 38.66770 -102.97767 36956 ft 563 kts 81°
2026-05-05 23:47 38.68330 -102.88005 36964 ft 564 kts 81°
2026-05-05 23:47 38.69883 -102.78159 36969 ft 564 kts 81°
2026-05-05 23:48 38.71425 -102.68297 36954 ft 565 kts 81°
2026-05-05 23:48 38.72962 -102.58415 36961 ft 566 kts 81°
2026-05-05 23:49 38.74509 -102.48511 36972 ft 567 kts 81°
2026-05-05 23:49 38.76044 -102.38606 36978 ft 567 kts 81°
2026-05-05 23:50 38.77555 -102.28688 36983 ft 567 kts 82°
2026-05-05 23:50 38.79063 -102.18758 36991 ft 568 kts 81°
2026-05-05 23:51 38.80579 -102.08823 36993 ft 568 kts 81°
2026-05-05 23:51 38.82069 -101.98944 36981 ft 568 kts 82°
2026-05-05 23:52 38.83560 -101.88987 36990 ft 569 kts 82°
2026-05-05 23:52 38.85029 -101.79026 36995 ft 569 kts 83°
2026-05-05 23:53 38.86150 -101.69002 37004 ft 567 kts 88°
2026-05-05 23:53 38.86920 -101.58929 37002 ft 567 kts 89°
2026-05-05 23:54 38.87689 -101.48854 37006 ft 568 kts 88°
2026-05-05 23:54 38.88579 -101.38775 37010 ft 568 kts 87°
2026-05-05 23:55 38.89511 -101.28697 37000 ft 569 kts 87°
2026-05-05 23:55 38.90407 -101.18605 37002 ft 569 kts 88°
2026-05-05 23:56 38.91262 -101.08496 37017 ft 570 kts 88°
2026-05-05 23:56 38.92111 -100.98388 37029 ft 570 kts 88°
2026-05-05 23:57 38.92959 -100.88318 37036 ft 570 kts 88°
2026-05-05 23:57 38.93809 -100.78177 37040 ft 570 kts 88°
2026-05-05 23:58 38.94639 -100.68044 37041 ft 570 kts 88°
2026-05-05 23:58 38.95457 -100.57896 37037 ft 570 kts 88°
2026-05-05 23:59 38.96276 -100.47810 37031 ft 571 kts 88°
2026-05-05 23:59 38.97088 -100.37657 37035 ft 571 kts 88°
2026-05-06 00:00 38.97886 -100.27498 37042 ft 571 kts 88°
2026-05-06 00:00 38.98675 -100.17332 37035 ft 572 kts 89°
2026-05-06 00:01 38.99455 -100.07158 37044 ft 572 kts 89°
2026-05-06 00:01 39.00230 -99.96977 37049 ft 572 kts 89°
2026-05-06 00:02 39.01004 -99.86848 37050 ft 572 kts 89°
2026-05-06 00:02 39.01773 -99.76656 37036 ft 573 kts 89°
2026-05-06 00:03 39.02541 -99.66444 37047 ft 573 kts 89°
2026-05-06 00:03 39.03296 -99.56233 37052 ft 574 kts 89°
2026-05-06 00:04 39.04037 -99.46026 37052 ft 574 kts 89°
2026-05-06 00:04 39.04765 -99.35799 37051 ft 574 kts 89°
2026-05-06 00:05 39.05848 -99.20442 37050 ft 575 kts 89°
2026-05-06 00:06 39.06559 -99.10253 37050 ft 575 kts 89°
2026-05-06 00:06 39.07269 -98.99989 37031 ft 575 kts 89°
2026-05-06 00:07 39.07966 -98.89726 37033 ft 576 kts 89°
2026-05-06 00:07 39.08651 -98.79455 37033 ft 576 kts 89°
2026-05-06 00:08 39.09333 -98.69166 37008 ft 576 kts 89°
2026-05-06 00:08 39.10001 -98.58939 37009 ft 578 kts 89°
2026-05-06 00:09 39.10665 -98.48623 37019 ft 578 kts 89°
2026-05-06 00:09 39.11318 -98.38294 37026 ft 579 kts 90°
2026-05-06 00:10 39.11961 -98.27965 37035 ft 580 kts 89°
2026-05-06 00:10 39.12598 -98.17603 37030 ft 580 kts 90°
2026-05-06 00:11 39.13227 -98.07247 37029 ft 580 kts 90°
2026-05-06 00:11 39.13850 -97.96887 37001 ft 580 kts 90°
2026-05-06 00:12 39.14458 -97.86525 37009 ft 580 kts 90°
2026-05-06 00:12 39.15062 -97.76142 37013 ft 581 kts 90°
2026-05-06 00:13 39.15652 -97.65763 37027 ft 581 kts 90°
2026-05-06 00:13 39.16139 -97.57142 36991 ft 581 kts 90°
2026-05-06 00:14 39.16716 -97.46750 37021 ft 581 kts 90°
2026-05-06 00:14 39.17372 -97.34686 37019 ft 581 kts 90°
2026-05-06 00:15 39.17841 -97.25981 37014 ft 581 kts 90°
2026-05-06 00:15 39.18393 -97.15593 37017 ft 581 kts 90°
2026-05-06 00:16 39.18927 -97.05258 37013 ft 581 kts 90°
2026-05-06 00:16 39.19451 -96.94865 37017 ft 581 kts 90°
2026-05-06 00:17 39.19968 -96.84470 37017 ft 581 kts 90°
2026-05-06 00:17 39.20484 -96.74076 37019 ft 581 kts 90°
2026-05-06 00:18 39.20986 -96.63680 37016 ft 581 kts 90°
2026-05-06 00:18 39.21480 -96.53286 37009 ft 581 kts 90°
2026-05-06 00:19 39.21973 -96.42889 36987 ft 581 kts 90°
2026-05-06 00:19 39.22448 -96.32492 37000 ft 581 kts 90°
2026-05-06 00:20 39.22908 -96.22149 37000 ft 581 kts 90°
2026-05-06 00:20 39.23366 -96.11732 37001 ft 581 kts 90°
2026-05-06 00:21 39.23819 -96.01321 37000 ft 581 kts 90°
2026-05-06 00:21 39.24250 -95.90905 36998 ft 582 kts 90°
2026-05-06 00:22 39.24670 -95.80471 36998 ft 582 kts 90°
2026-05-06 00:22 39.25086 -95.70117 36986 ft 582 kts 90°
2026-05-06 00:23 39.25505 -95.59632 36999 ft 582 kts 90°
2026-05-06 00:23 39.25902 -95.49258 37000 ft 582 kts 90°
2026-05-06 00:24 39.26294 -95.38834 36996 ft 582 kts 90°
2026-05-06 00:24 39.26679 -95.28397 36994 ft 582 kts 90°
2026-05-06 00:25 39.27052 -95.17943 36991 ft 583 kts 90°
2026-05-06 00:25 39.27415 -95.07493 36989 ft 583 kts 90°
2026-05-06 00:26 39.27770 -94.97038 36984 ft 583 kts 90°
2026-05-06 00:26 39.28117 -94.86581 36973 ft 583 kts 90°
2026-05-06 00:27 39.28533 -94.76124 36973 ft 585 kts 84°
2026-05-06 00:27 39.30331 -94.65906 36985 ft 584 kts 72°
2026-05-06 00:28 39.32628 -94.55910 36980 ft 585 kts 72°
2026-05-06 00:28 39.34912 -94.45828 36985 ft 585 kts 72°
2026-05-06 00:29 39.37178 -94.35736 36985 ft 585 kts 72°
2026-05-06 00:29 39.39440 -94.25638 36999 ft 585 kts 72°
2026-05-06 00:30 39.41708 -94.15525 36982 ft 585 kts 72°